DAL25M KLAX-KLAS

Flight info

Callsign DAL25M
Flight time N/A
Altitude 29000
Route ORCKA5 MISEN RNDRZ4
Aircraft A20N/M-SDE2E3FGHIRWXY/LB1

Departure

Time 2026-04-22 15:46
Airport Los Angeles International Airport (KLAX)

Arrival

Time N/A
Airport Harry Reid International Airport (KLAS)
Time Latitude Longitude Altitude Speed Heading
2026-04-22 15:34 33.94794 -118.40127 121 ft 0 kts 187°
2026-04-22 15:39 33.94808 -118.40125 122 ft 2 kts 186°
2026-04-22 15:40 33.94825 -118.40124 121 ft 2 kts 175°
2026-04-22 15:40 33.94838 -118.40132 121 ft 2 kts 90°
2026-04-22 15:40 33.94838 -118.40141 123 ft 0 kts 84°
2026-04-22 15:40 33.94838 -118.40142 123 ft 0 kts 84°
2026-04-22 15:44 33.94838 -118.40138 122 ft 3 kts 84°
2026-04-22 15:44 33.94856 -118.40090 124 ft 10 kts 35°
2026-04-22 15:44 33.94922 -118.40041 124 ft 13 kts 67°
2026-04-22 15:44 33.94947 -118.39932 125 ft 10 kts 47°
2026-04-22 15:45 33.94954 -118.39925 123 ft 0 kts 37°
2026-04-22 15:45 33.94972 -118.39913 122 ft 6 kts 20°
2026-04-22 15:45 33.95036 -118.39943 124 ft 14 kts 306°
2026-04-22 15:46 33.95030 -118.40068 125 ft 24 kts 264°
2026-04-22 15:46 33.94968 -118.40666 125 ft 116 kts 262°
2026-04-22 15:46 33.94843 -118.41874 398 ft 159 kts 264°
2026-04-22 15:46 33.94699 -118.43226 1200 ft 169 kts 263°
2026-04-22 15:47 33.94551 -118.44688 1940 ft 184 kts 263°
2026-04-22 15:47 33.94391 -118.46300 2562 ft 204 kts 263°
2026-04-22 15:47 33.94207 -118.48090 3111 ft 227 kts 263°
2026-04-22 15:47 33.93990 -118.50062 3805 ft 247 kts 263°
2026-04-22 15:48 33.93750 -118.52158 4731 ft 255 kts 263°
2026-04-22 15:48 33.93496 -118.54282 5846 ft 257 kts 263°
2026-04-22 15:48 33.93223 -118.56409 6946 ft 258 kts 263°
2026-04-22 15:48 33.92933 -118.58549 8019 ft 259 kts 262°
2026-04-22 15:49 33.92640 -118.60694 9087 ft 261 kts 262°
2026-04-22 15:49 33.92346 -118.62856 10154 ft 262 kts 262°
2026-04-22 15:49 33.92046 -118.65087 10770 ft 280 kts 262°
2026-04-22 15:49 33.91728 -118.67498 11154 ft 303 kts 262°
2026-04-22 15:50 33.91251 -118.70028 11779 ft 316 kts 249°
2026-04-22 15:50 33.90020 -118.72253 12527 ft 325 kts 229°
2026-04-22 15:50 33.88138 -118.73828 12845 ft 338 kts 209°
2026-04-22 15:50 33.85816 -118.74496 12970 ft 352 kts 188°
2026-04-22 15:51 33.83343 -118.74063 13361 ft 371 kts 165°
2026-04-22 15:51 33.81061 -118.72517 14257 ft 385 kts 145°
2026-04-22 15:51 33.79257 -118.70092 15040 ft 397 kts 125°
2026-04-22 15:51 33.78136 -118.67028 15784 ft 408 kts 106°
2026-04-22 15:52 33.77828 -118.63617 16495 ft 416 kts 87°
2026-04-22 15:52 33.78380 -118.60204 17189 ft 419 kts 68°
2026-04-22 15:52 33.79740 -118.57110 17874 ft 419 kts 49°
2026-04-22 15:52 33.81758 -118.54605 18536 ft 418 kts 35°
2026-04-22 15:53 33.84035 -118.52403 19130 ft 421 kts 33°
2026-04-22 15:53 33.86358 -118.50238 19744 ft 426 kts 32°
2026-04-22 15:53 33.88706 -118.48026 20341 ft 431 kts 33°
2026-04-22 15:53 33.90654 -118.46156 20835 ft 435 kts 34°